カタログに戻る

MINOTAUR R/B

運用中PO
NORAD 37365·ROCKET BODY·🇺🇸 United States

打ち上げ Feb 6, 2011 から Vandenberg Space Force Base

Loading…

次のパス (今後24時間)

TLE

古いSource: Mike McCants

元期: Aug 19, 2026, 20:33 UTC

1 37365U 11006B   26231.85669081 0.00000000  00000-0  00000-0 0    02
2 37365  90.1792  94.5996 0005000   7.2915 352.7083 13.11922404    00

AllMySatでMINOTAUR R/Bをリアルタイム追跡

Download on the App Store